Погода в Оленеке

Погода в Оленеке : погода сейчас, прогноз погоды и архив. Всё, что Вы хотите узнать о погоде в Оленеке!

Хотите узнать прогноз погоды в Оленеке? Тогда Вам сюда: Погода в Оленеке

Поиск расширенной информации на нашем сайте:

Другие новости

Новости СМИ2

Главная страница сайта

Новости сайта

03.07.2017

Напоминаем, что на нашем специализированном сайте Метеоцентр.Азия вы можете получить высокодетализированные автоматические прогнозы погоды по пунктам России, СНГ и мира в авиационном формате (включающие направление и скорость ветра, видимость, явления погоды, количество и форму облачности, нижнюю и верхнюю границу облачности).


Погода в Оленеке - сегодня

Время (UTC), дата Ветер
(°,м/с) 
Видим.   Явления Облачность Т
(°С)
Тd
(°С)
f(%) Тe
(°С)
Pmin
(гПа)
dP
(гПа)
Po
(мм)
O2
(г/м3)
Тmin Tmax R s Состояние
почвы
15 14.08.18 250 (З) н/о    н/о 
+12.3 +8.8 79 +14  1013.8  0.8  741  284           
18 14.08.18 тихо ()   н/о    н/о 
+9 +8.9 99 +9  1014.5  0.3  741  287           
21 14.08.18 270 (З) н/о    н/о 
+4 +4 100 +5  1015.4  0.4  741  294           
00 15.08.18 тихо ()   4000 м  дымка{туман}  6/0 верхняя 
[Ci sp]
+5.1 +4.9 99 +5  1014.7  -0.5  741  292  +3.7        влажная 
03 15.08.18 180 (Ю) 20000 м    8/0 средняя, верхняя 
[Ac trans|Ci sp]
+12.7 +8.1 74 +14  1012.8  -1.1  740  284           
06 15.08.18 260 (З) 20000 м    8/0 средняя, верхняя 
[Ac trans|Ci sp]
+17.4 +3.8 40 +18  1010.7  -1.8  739  279           
09 15.08.18 190 (Ю) 20000 м    8/0 средняя, верхняя 
[Ac As|Ci sp]
+16.6 +5.6 48 +17  1009  -1.6  738  279           
12 15.08.18 190 (Ю) н/о    н/о 
+16.7 +5.2 47 +18  1008.4  -1.6  737  279    +17.9       
15 15.08.18 170 (Ю) н/о    н/о 
+13.1 +5.2 59 +14  1008.1  -0.7  737  282           
18 15.08.18 150 (ЮВ) н/о    н/о 
+9.7 +5.5 75 +11  1007.2  -1.1  736  285           
21 15.08.18 тихо ()   н/о    н/о 
+7.5 +6.4 93 +8  1007.1  -0.3  735  287           
00 16.08.18 тихо ()   20000 м    ясно 
+12.4 +6.5 67 +12  1006.4  -0.1  735  282  +6.6        влажная 
03 16.08.18 250 (З) 20000 м    1/0 верхняя 
[Ci sp]
+19.4 +8.6 50 +20  1005.6  -0.2  735  275           
06 16.08.18 280 (З) 20000 м    6/5 1000 м верхняя 
[Cu hum|Ci fib]
+24.5 +10 40 +26  1004.8  -0.4  735  270           
09 16.08.18 250 (З) 20000 м    6/5 1000 м кучево-дожд., верхняя 
[Cb cap|Ci fib]
+24.1 +8.1 36 +24  1005.3  0.5  735  271           
12 16.08.18 350 (С) н/о    н/о 
+20.7 +7.2 42 +21  1006.7  1.1  736  275    +24.5       
15 16.08.18 040 (СВ) н/о    н/о 
+16.7 +7.7 55 +18  1007.8  0.7  737  278           
18 16.08.18 080 (В) н/о    н/о 
+14.2 +7.4 64 +15  1008.1  737  281           
00 17.08.18 090 (В) 20000 м    6/0 верхняя 
[Ci sp]
+15.2 +8.9 66 +16  1007.1  -0.4  736  279  +11.6        сухая 
03 17.08.18 190 (Ю) 20000 м    6/0 верхняя 
[Ci sp]
+21.5 +10.2 49 +23  1005.5  -1  735  273           
06 17.08.18 160 (Ю) 20000 м    6/0 верхняя 
[Ci sp]
+24.9 +9.2 37 +25  1003.5  -1.6  734  269           
09 17.08.18 250 (З) 20000 м    6/0 верхняя 
[Ci sp]
+25.3 +7.8 33 +25  1002.8  -0.7  734  269           
12 17.08.18 350 (С) 20000 м    8/0 верхняя 
[Ci sp]
+23.5 +7.6 36 +24  1002.9  -0.1  734  271    +26       
15 17.08.18 020 (С) н/о    н/о 
+17.3 +11.7 70 +21  1004  0.5  734  276           
18 17.08.18 040 (СВ) 2{10}  н/о    н/о 
+13.4 +11 85 +17  1005.7  1.3  735  280           
Время (UTC), дата Ветер
(°,м/с) 
Видим.   Явления Облачность Т
(°С)
Тd
(°С)
f(%) Тe
(°С)
Pmin
(гПа)
dP
(гПа)
Po
(мм)
O2
(г/м3)
Тmin Tmax R s Состояние
почвы

Для получения пояснительной информации подведите курсор к названию столбца.

ПОГОДА в Оленеке - архив

Всё, что Вы хотите узнать о погоде в Оленеке - удобно и подробно!

Выберите нужную дату (начиная с 1 января 2015* года) и нажмите кнопку "Найти".
Будут отображены архивные сводки погоды по пункту Оленек, начиная с указанной даты.


Отображать данные в формате CSV (для использования в таблицах Excel)


Внимание! Наш архив погоды предназначен исключительно для личного некоммерческого использования в познавательных целях. Если Вам необходимы официальные справки о состоянии погоды (для производственных, юридических, коммерческих и т.п. целей), обращайтесь в органы Росгидромета.

*Примечание: данная дата относится к архиву по метеостанциям СССР (Россия, СНГ, Балтия).
Архив по метеостанциям Зарубежной Европы и Азии (кроме Китая) хранится 10 дней, по другим регионам земного шара (Китай, Африка, Америка, Австралия, Океания) - 1 день.

Оленек - район местоположения метеостанции


Название, широта, долгота, высота метеостанции:
Оленек 68.5°ш. 112.4°д. 220 м над ур. моря [Российская Федерация]

Дополнительная информация

В oтличие oт бoльшинства пoгoдных сайтoв мы публикуем пoдрoбную метеoинфoрмацию в детальнoм прoфессиoнальнoм фoрмате.

Характеристики температуры и влажнoсти вoздуха измеряются на высoте 2 м в тени вдали oт зданий и деревьев.
Скoрoсть ветра измеряется на высoте 10 м (на урoвне рoста челoвека скoрoсть ветра ниже в 1.5-2 раза). Если метеoстанция нахoдится в гoрoде или в лесу, тo скoрoсть ветра занижена на 2-4 м/с пo сравнению с oткрытым местoм. Скoрoсть ветра над акватoриями крупных рек и oзёр, а также на вершинах хoлмoв на 2-5 м/с выше, чем в oбычных услoвиях.
Атмoсфернoе давление в разных тoчках местнoсти мoжет значительнo oтличаться oт давления на метеoстанции, в зависимoсти oт услoвий рельефа (при пoдъёме на 10 м давление пoнижается примернo на 1 мм рт.ст.).